Temperature
9 9 8 8 8 7 7 6 6 6 5 5 5 5 5 4 4 3 3 2 1 0 -0 -0 0 0 0 0 0 0 1 0 0 1 1 1 2 2 3 3 3 4 5
8 8 7 7 6 6 5 5 5 5 5 5 4 4 4 4 3 3 2 1 0 -1 -1 -2 -2 -1 -1 -1 -1 -1 -1 -1 -1 -1 -1 -0 1 1 2 2 2 3 4
7 7 6 5 5 5 5 4 4 4 4 4 4 3 3 3 3 2 1 1 -0 -2 -3 -3 -3 -2 -2 -2 -2 -2 -2 -2 -2 -2 -2 -1 -1 -0 0 1 1 2 3
6 5 4 4 4 4 4 4 4 3 3 3 3 2 2 2 2 1 0 -0 -1 -3 -3 -3 -3 -4 -4 -4 -3 -3 -3 -3 -3 -3 -3 -3 -2 -2 -1 -1 -0 1 1
5 4 4 3 3 3 3 3 3 2 2 2 2 1 1 1 0 -1 -2 -2 -3 -4 -4 -4 -4 -4 -5 -5 -4 -4 -4 -4 -4 -4 -4 -4 -3 -3 -2 -1 -1 -0 0
3 3 3 3 3 2 2 2 2 2 1 1 1 0 -0 -1 -1 -2 -4 -4 -5 -5 -5 -5 -5 -5 -5 -5 -5 -5 -5 -5 -5 -5 -5 -5 -4 -3 -2 -2 -1 -1 -0
3 3 2 2 2 2 1 1 1 1 0 -0 -1 -1 -2 -2 -3 -4 -5 -6 -6 -6 -6 -6 -6 -6 -6 -6 -6 -6 -6 -5 -5 -5 -5 -5 -4 -3 -2 -2 -2 -2 -1
2 2 2 2 1 1 1 0 -0 -1 -1 -2 -2 -2 -3 -3 -4 -5 -6 -7 -7 -7 -6 -6 -6 -6 -6 -6 -6 -6 -6 -6 -6 -5 -5 -4 -4 -3 -3 -3 -3 -3 -2
1 1 1 1 0 0 -0 -1 -2 -2 -2 -3 -3 -3 -4 -4 -5 -7 -7 -7 -7 -7 -7 -7 -7 -7 -7 -6 -6 -7 -7 -7 -6 -6 -6 -5 -5 -4 -4 -4 -4 -3 -3
1 1 0 -0 -1 -1 -2 -2 -3 -3 -4 -4 -4 -4 -5 -6 -7 -8 -8 -8 -8 -7 -7 -7 -7 -7 -7 -7 -7 -7 -8 -8 -7 -7 -7 -6 -6 -5 -5 -5 -5 -4 -4
0 -0 -0 -1 -2 -2 -3 -3 -4 -4 -4 -4 -4 -5 -6 -8 -9 -9 -8 -8 -8 -7 -7 -7 -7 -7 -7 -7 -8 -8 -9 -8 -8 -8 -7 -7 -7 -6 -6 -6 -6 -6 -6
-0 -1 -1 -2 -2 -3 -3 -4 -4 -5 -5 -5 -6 -7 -8 -9 -9 -9 -8 -8 -8 -8 -8 -8 -8 -8 -8 -8 -9 -9 -9 -9 -9 -9 -8 -8 -7 -7 -7 -7 -6 -6 -6
-1 -1 -2 -2 -3 -3 -4 -4 -5 -6 -7 -8 -9 -9 -9 -9 -9 -9 -9 -8 -8 -8 -8 -8 -8 -9 -9 -9 -10 -10 -10 -10 -10 -9 -9 -9 -8 -7 -7 -7 -6 -6 -6
-2 -2 -3 -3 -3 -4 -5 -5 -6 -7 -8 -9 -10 -9 -9 -10 -9 -9 -9 -9 -9 -9 -8 -8 -9 -10 -10 -10 -11 -11 -11 -11 -10 -10 -10 -9 -9 -8 -7 -7 -7 -7 -7
-3 -3 -3 -4 -4 -5 -5 -7 -8 -9 -10 -10 -10 -10 -10 -10 -10 -9 -9 -9 -9 -9 -9 -9 -10 -10 -11 -11 -11 -11 -11 -11 -11 -10 -10 -10 -9 -8 -8 -8 -7 -7 -7
-4 -4 -4 -5 -5 -6 -7 -7 -9 -10 -10 -10 -10 -10 -10 -10 -10 -9 -9 -9 -9 -9 -10 -10 -11 -11 -11 -11 -12 -12 -12 -11 -11 -11 -10 -10 -9 -8 -8 -8 -8 -8 -8
-4 -5 -5 -6 -6 -7 -8 -9 -10 -10 -10 -10 -10 -10 -10 -10 -10 -10 -10 -10 -10 -11 -11 -11 -11 -12 -12 -12 -12 -12 -12 -11 -11 -11 -11 -10 -9 -8 -8 -8 -8 -8 -8
-5 -5 -6 -7 -7 -8 -9 -10 -11 -11 -11 -11 -11 -11 -11 -10 -10 -10 -10 -11 -12 -12 -12 -12 -12 -12 -12 -12 -12 -12 -12 -11 -11 -11 -10 -10 -9 -8 -8 -8 -8 -8 -8
-6 -6 -7 -8 -9 -10 -10 -11 -11 -11 -11 -11 -11 -11 -11 -11 -11 -11 -11 -12 -12 -12 -12 -12 -12 -13 -13 -12 -12 -12 -12 -11 -11 -10 -10 -9 -9 -8 -8 -8 -8 -8 -8
-7 -7 -8 -9 -10 -10 -10 -11 -11 -11 -11 -11 -11 -11 -11 -11 -11 -11 -12 -12 -12 -13 -13 -13 -13 -13 -12 -12 -12 -12 -11 -11 -10 -10 -9 -9 -8 -8 -8 -8 -8 -8 -7
-7 -8 -9 -9 -10 -10 -11 -11 -11 -11 -11 -11 -11 -11 -11 -11 -12 -12 -12 -13 -13 -13 -13 -13 -13 -12 -12 -11 -11 -11 -11 -10 -10 -9 -9 -9 -8 -8 -8 -8 -8 -7 -7
-8 -9 -9 -10 -11 -11 -11 -11 -11 -12 -12 -12 -12 -12 -12 -12 -12 -13 -13 -13 -13 -13 -13 -13 -13 -12 -11 -11 -11 -11 -10 -10 -9 -9 -9 -8 -8 -8 -8 -7 -7 -7 -7
-8 -9 -10 -11 -11 -11 -11 -11 -12 -12 -12 -13 -13 -13 -13 -13 -13 -13 -13 -13 -13 -13 -13 -13 -12 -11 -11 -10 -10 -10 -9 -9 -9 -8 -8 -8 -7 -7 -7 -7 -7 -7 -7
-10 -11 -11 -11 -11 -11 -11 -12 -12 -12 -13 -13 -13 -13 -13 -13 -13 -13 -13 -13 -13 -13 -13 -12 -11 -11 -10 -10 -9 -9 -8 -8 -8 -8 -7 -7 -7 -7 -7 -7 -7 -7 -6
-11 -11 -11 -11 -11 -11 -12 -12 -13 -13 -13 -13 -14 -14 -14 -14 -14 -13 -13 -13 -13 -13 -12 -11 -11 -10 -10 -9 -9 -8 -8 -8 -8 -7 -7 -7 -7 -7 -7 -7 -6 -6 -6
-10 -11 -11 -11 -11 -12 -12 -12 -13 -13 -13 -14 -14 -14 -14 -14 -14 -14 -13 -13 -13 -13 -12 -11 -10 -10 -9 -9 -8 -8 -8 -7 -7 -6 -6 -6 -6 -7 -7 -6 -6 -6 -5
Wind_Speed
7 7 8 8 8 7 7 8 8 8 9 10 11 12 12 12 13 13 12 13 13 13 12 14 16 15 10 9 9 9 9 9 13 16 15 14 16 17 16 14 15 16 17
7 7 7 7 7 8 8 8 8 8 9 9 10 11 12 12 12 12 13 13 13 14 14 13 14 13 11 10 10 12 11 8 9 16 18 15 15 15 17 18 15 15 15
6 7 7 7 8 8 8 8 9 9 10 10 11 11 12 12 13 11 11 12 12 11 11 13 15 14 12 11 13 13 10 10 8 12 16 15 14 13 15 16 16 14 14
6 6 6 7 7 8 8 8 8 9 10 11 11 11 12 14 13 12 15 14 13 10 9 11 13 13 14 15 14 11 11 12 10 11 13 14 14 13 12 15 16 13 14
5 5 5 6 7 7 8 8 8 9 11 11 12 13 13 13 13 18 17 17 15 13 12 11 12 20 23 19 18 16 16 14 14 15 16 16 15 13 14 14 18 16 14
3 4 5 6 7 7 8 9 9 10 11 11 12 14 14 14 23 27 23 16 14 14 16 15 16 16 20 27 29 29 26 21 19 19 18 20 21 19 17 16 17 19 18
3 5 6 6 7 8 10 10 10 10 11 12 12 13 14 17 26 28 28 20 14 14 15 16 17 18 22 15 23 28 25 31 30 22 21 21 22 21 19 20 19 21 22
5 6 6 7 7 8 8 9 9 9 10 11 13 14 14 18 26 28 29 17 13 14 15 15 16 15 17 22 20 19 18 20 25 20 18 20 19 18 18 20 21 21 20
5 6 7 7 7 8 9 9 9 10 11 11 13 13 15 17 25 28 28 14 14 15 15 14 16 15 27 32 24 22 22 20 25 30 31 29 31 30 25 18 16 16 17
6 7 7 7 8 9 10 9 8 9 11 13 14 12 13 14 23 27 28 14 15 15 14 13 20 25 30 32 23 20 21 20 22 23 22 22 20 21 25 17 14 14 15
6 7 7 8 8 9 8 7 10 11 12 12 15 13 11 15 21 26 29 17 16 17 15 13 13 28 31 34 30 17 24 27 20 18 17 16 15 12 12 12 12 12 13
6 7 8 8 8 9 9 10 9 10 12 13 14 14 9 11 18 23 29 27 26 18 16 14 16 27 32 33 25 27 33 27 14 16 16 15 14 13 12 13 13 12 9
7 8 8 9 8 8 9 10 10 9 10 12 12 13 12 9 13 26 27 29 30 19 16 26 24 28 29 20 25 32 26 15 15 16 16 16 14 14 14 13 11 8 6
7 8 9 9 9 8 6 8 9 9 10 11 12 13 14 13 11 12 14 17 21 19 17 16 22 26 22 23 22 18 14 15 17 16 17 16 15 13 12 11 11 7 3
8 9 9 8 9 8 7 7 10 8 12 15 12 12 14 15 18 28 23 17 17 18 20 9 9 12 13 14 14 14 14 15 16 15 16 16 16 14 12 10 7 5 2
8 8 7 7 7 8 10 11 15 16 22 23 22 20 16 21 29 30 30 30 31 32 22 13 12 12 14 16 17 17 16 16 16 16 16 16 16 14 12 10 7 3 1
8 9 7 7 9 9 10 12 14 15 19 21 22 23 23 27 28 29 28 29 29 29 15 12 12 14 15 15 16 16 17 17 16 16 16 16 15 13 11 9 5 2 3
7 10 11 8 9 10 10 11 12 14 15 12 15 22 25 27 28 27 26 25 18 16 12 12 13 14 15 15 16 16 16 17 16 15 16 15 13 11 9 7 3 2 3
8 8 8 8 8 9 10 11 12 14 14 14 13 15 22 24 25 21 22 13 13 13 13 13 14 14 15 15 16 16 16 16 17 16 15 15 12 10 8 5 4 5 4
8 15 14 9 8 9 10 12 13 13 14 14 14 14 15 16 12 11 11 10 11 13 14 15 15 14 15 15 15 16 16 16 16 15 14 13 10 8 7 6 5 4 4
8 10 16 12 9 11 11 12 12 12 12 13 13 17 23 15 12 12 12 12 12 13 15 15 15 15 14 15 15 16 18 16 15 14 13 10 8 7 6 5 5 4 3
7 8 9 10 10 11 12 11 11 12 13 15 13 15 22 14 11 11 12 12 11 11 13 14 14 14 14 15 16 16 16 16 15 13 11 8 6 5 4 4 4 3 3
8 10 11 11 11 16 14 10 11 12 13 13 13 14 13 13 13 12 13 12 12 13 13 13 15 15 15 15 15 15 15 15 14 12 9 6 5 5 4 4 4 3 3
9 10 10 10 11 10 10 10 10 12 12 13 13 13 13 12 14 15 13 12 13 13 13 13 15 18 22 19 16 15 14 14 12 7 6 5 5 4 4 3 3 3 3
8 9 10 10 10 10 10 11 12 12 13 14 14 13 13 13 14 13 12 12 12 13 15 16 14 16 21 25 22 17 20 19 10 5 4 4 4 4 4 3 3 2 2
8 9 10 9 8 9 10 11 12 12 12 13 12 12 13 14 13 12 12 12 13 14 15 15 17 21 25 20 19 22 20 13 11 10 5 4 4 4 3 3 5 4 4
Wind_Direction
53 47 37 23 11 5 4 358 350 343 341 344 345 343 341 340 337 332 330 331 332 328 325 320 315 313 314 320 316 312 306 299 301 304 308 310 309 307 306 301 298 296 294
50 45 32 16 5 2 356 350 345 341 340 342 342 340 337 334 329 323 324 330 325 323 325 326 327 328 324 322 315 308 300 296 303 306 305 305 304 306 306 305 303 300 296
50 42 25 11 3 354 346 344 346 345 342 342 340 335 331 328 323 318 320 320 317 315 323 328 324 319 314 311 305 300 293 303 294 294 298 300 301 302 305 303 300 298 296
45 35 20 2 350 340 335 338 339 337 336 336 334 330 328 327 323 326 327 322 317 313 316 316 316 315 312 310 308 300 305 305 295 291 294 296 296 295 296 301 302 298 297
40 24 4 346 338 333 333 334 334 336 337 330 329 328 327 327 327 328 326 322 318 317 318 313 311 315 315 316 317 317 314 310 308 307 303 301 297 298 296 296 296 296 289
28 6 353 346 339 336 335 335 335 334 330 326 324 324 326 328 326 327 327 319 317 319 319 317 314 311 313 319 316 313 312 311 310 306 302 299 296 292 292 297 301 299 295
14 2 350 340 336 334 335 334 331 326 323 323 323 323 320 319 324 326 324 323 317 315 313 313 314 315 317 306 308 313 312 309 305 299 293 289 287 289 297 301 298 294 289
4 345 335 335 331 326 325 323 320 317 319 320 320 316 313 315 322 323 322 322 313 307 306 305 306 307 310 314 315 316 310 307 303 300 293 291 293 299 300 298 295 292 286
341 328 327 326 323 325 323 315 311 316 319 317 313 310 311 314 319 321 323 317 311 306 304 305 310 311 312 320 324 318 314 311 310 309 309 308 308 306 303 301 297 297 298
320 313 313 318 320 313 303 298 306 313 311 311 309 307 305 307 313 322 324 317 313 311 310 308 313 316 318 323 324 319 316 312 311 310 310 307 302 298 299 296 297 298 300
305 309 317 316 306 294 291 298 307 309 310 309 308 308 302 305 316 322 322 324 317 316 317 315 313 318 323 326 326 321 313 314 313 312 309 304 300 295 295 293 294 293 292
310 314 308 300 298 306 301 302 303 305 310 310 309 309 303 303 317 320 323 323 321 319 317 314 315 323 329 329 327 320 320 322 316 311 307 305 306 304 302 300 295 289 274
315 306 298 296 291 292 296 303 308 306 306 307 308 310 314 314 319 322 322 322 323 322 313 314 325 331 331 329 322 323 324 319 313 310 309 308 306 301 302 303 296 281 258
302 297 295 296 298 293 287 296 303 302 302 304 308 315 319 320 318 318 319 320 321 320 315 321 331 330 329 324 323 321 317 311 312 309 308 306 304 302 304 306 304 298 270
293 291 293 292 298 305 299 289 299 288 297 309 313 317 319 319 318 322 325 324 324 322 327 326 325 327 325 322 321 321 318 314 313 311 310 309 308 308 309 309 299 292 286
296 295 294 303 305 305 307 307 306 310 313 314 315 316 316 315 318 323 325 327 330 331 331 325 324 323 323 323 323 321 316 312 313 313 311 308 308 311 312 311 305 303 32
289 303 305 307 307 308 309 313 316 318 318 317 316 317 319 320 323 325 327 331 333 332 328 321 323 323 321 320 319 315 312 311 312 312 310 309 309 312 313 313 317 12 69
295 310 313 303 302 304 306 310 312 316 318 315 315 318 321 323 324 324 329 335 331 330 324 324 323 320 319 318 316 312 310 312 314 313 312 311 313 318 319 323 344 58 69
309 304 298 293 296 302 307 309 310 310 310 312 314 319 323 323 321 324 332 329 322 322 323 323 320 318 316 315 313 311 310 312 313 314 314 316 322 327 332 348 23 60 53
298 303 309 307 306 309 309 309 309 309 310 312 316 319 321 319 322 325 324 316 317 319 321 321 319 315 314 312 311 311 313 313 314 316 317 322 332 342 356 14 26 29 33
292 300 310 311 306 307 307 306 307 308 311 313 313 315 319 323 322 317 318 319 319 319 319 319 317 314 312 311 312 313 313 314 315 317 320 330 343 353 2 14 22 30 38
293 297 302 302 303 305 305 306 310 311 312 312 314 316 318 320 314 313 316 317 316 315 315 315 314 310 309 310 312 314 314 314 315 317 322 333 343 351 360 10 15 19 21
297 296 298 299 302 306 310 306 307 309 311 312 313 315 316 315 316 316 315 317 317 315 315 314 311 308 308 310 312 311 310 310 309 312 322 332 342 352 359 2 3 2 354
289 291 295 300 303 303 305 307 309 310 311 312 313 312 312 313 314 315 315 314 314 314 313 312 309 306 308 313 315 313 308 308 310 321 339 349 356 356 357 357 352 343 331
290 294 299 300 303 304 305 307 308 310 310 310 310 311 313 313 312 312 311 311 312 313 312 312 310 311 313 315 315 314 315 327 355 16 15 20 15 5 355 351 350 356 8
293 298 301 300 297 297 299 302 303 302 302 304 307 308 309 310 310 309 311 313 317 317 315 313 311 313 315 317 316 321 332 357 15 24 31 18 8 358 354 2 10 16 22
Height
1483 1481 1480 1477 1474 1470 1466 1462 1458 1454 1449 1444 1440 1436 1432 1427 1422 1417 1412 1406 1401 1396 1391 1387 1382 1377 1372 1367 1362 1357 1352 1347 1338 1328 1322 1315 1310 1306 1301 1299 1296 1292 1287
1481 1479 1477 1474 1471 1467 1463 1458 1454 1450 1446 1441 1437 1432 1428 1423 1418 1412 1406 1400 1395 1389 1384 1380 1375 1370 1365 1360 1355 1349 1344 1339 1332 1322 1312 1306 1301 1298 1293 1287 1283 1280 1275
1478 1476 1473 1470 1467 1463 1459 1455 1451 1447 1443 1438 1433 1428 1423 1418 1413 1407 1401 1395 1389 1384 1379 1374 1368 1363 1357 1351 1346 1341 1335 1330 1324 1316 1306 1299 1292 1288 1283 1277 1272 1267 1263
1476 1473 1470 1467 1463 1460 1456 1452 1448 1443 1439 1434 1430 1425 1420 1414 1409 1402 1396 1390 1384 1379 1373 1367 1361 1356 1350 1344 1338 1333 1327 1320 1313 1306 1298 1290 1284 1279 1275 1268 1260 1256 1252
1473 1469 1466 1463 1460 1456 1452 1448 1444 1440 1436 1431 1426 1421 1415 1409 1403 1397 1391 1384 1379 1372 1366 1360 1355 1349 1344 1339 1334 1326 1320 1312 1305 1297 1289 1282 1276 1271 1266 1261 1253 1246 1241
1469 1466 1463 1460 1457 1453 1448 1444 1440 1436 1432 1427 1421 1415 1409 1404 1398 1392 1386 1379 1373 1366 1359 1352 1347 1341 1336 1332 1326 1321 1315 1308 1299 1292 1283 1276 1269 1264 1258 1252 1246 1239 1230
1465 1462 1459 1456 1453 1449 1445 1441 1436 1431 1427 1421 1416 1410 1404 1398 1392 1386 1380 1374 1367 1360 1353 1346 1340 1335 1330 1323 1317 1312 1306 1300 1294 1286 1275 1268 1262 1256 1250 1244 1238 1231 1223
1462 1459 1456 1452 1449 1445 1442 1437 1433 1427 1421 1416 1410 1404 1398 1392 1385 1379 1373 1367 1360 1353 1347 1341 1335 1328 1322 1317 1309 1302 1294 1287 1281 1274 1267 1259 1253 1247 1243 1236 1228 1220 1211
1459 1456 1452 1449 1445 1442 1438 1434 1428 1422 1415 1410 1404 1399 1392 1385 1379 1373 1368 1360 1353 1346 1341 1335 1330 1323 1316 1311 1303 1294 1285 1277 1270 1264 1259 1252 1245 1240 1234 1227 1219 1212 1203
1455 1452 1449 1446 1442 1439 1434 1429 1422 1416 1410 1404 1398 1393 1386 1379 1373 1368 1363 1356 1348 1341 1334 1329 1324 1318 1311 1304 1297 1288 1278 1269 1260 1252 1246 1241 1235 1230 1225 1220 1213 1206 1199
1452 1449 1446 1443 1439 1435 1429 1423 1417 1410 1404 1399 1392 1386 1380 1374 1368 1363 1358 1352 1345 1336 1329 1322 1316 1310 1304 1298 1291 1282 1273 1264 1254 1246 1238 1231 1226 1221 1216 1210 1205 1200 1193
1448 1446 1442 1439 1435 1429 1423 1417 1411 1406 1399 1392 1385 1378 1372 1368 1363 1358 1353 1347 1341 1333 1325 1318 1310 1304 1298 1291 1283 1274 1266 1257 1248 1240 1232 1225 1219 1212 1206 1200 1194 1189 1184
1444 1442 1438 1434 1429 1423 1417 1411 1406 1401 1394 1387 1380 1373 1367 1362 1358 1353 1347 1342 1335 1329 1321 1314 1306 1299 1292 1283 1276 1268 1259 1251 1244 1236 1228 1219 1212 1205 1198 1191 1185 1180 1176
1440 1437 1433 1427 1422 1417 1412 1407 1401 1395 1389 1382 1376 1370 1364 1358 1353 1347 1342 1336 1329 1323 1315 1308 1301 1294 1287 1279 1270 1261 1254 1247 1241 1232 1223 1213 1205 1198 1192 1185 1179 1174 1170
1436 1431 1426 1421 1416 1411 1406 1402 1396 1391 1386 1380 1373 1368 1361 1355 1350 1346 1340 1332 1326 1319 1311 1303 1295 1288 1280 1272 1264 1256 1249 1242 1234 1226 1217 1208 1200 1194 1187 1180 1175 1170 1168
1429 1424 1420 1415 1410 1405 1399 1393 1389 1386 1380 1375 1370 1365 1359 1354 1348 1342 1336 1329 1322 1315 1307 1299 1292 1285 1278 1269 1261 1252 1244 1237 1229 1221 1212 1204 1197 1190 1183 1177 1173 1169 1167
1424 1419 1414 1410 1405 1399 1393 1387 1380 1375 1372 1368 1363 1360 1355 1350 1344 1338 1332 1325 1318 1311 1303 1296 1290 1282 1274 1266 1258 1249 1240 1232 1224 1216 1208 1200 1194 1187 1181 1176 1172 1170 1169
1419 1415 1410 1405 1399 1394 1389 1384 1378 1371 1365 1360 1358 1354 1350 1345 1340 1334 1328 1321 1312 1306 1300 1294 1287 1279 1271 1263 1254 1245 1236 1228 1220 1213 1205 1198 1192 1185 1180 1175 1173 1172 1171
1414 1409 1404 1398 1393 1389 1384 1380 1375 1369 1363 1358 1353 1348 1345 1340 1335 1330 1324 1317 1309 1303 1297 1290 1282 1275 1267 1259 1250 1241 1234 1225 1217 1210 1202 1196 1191 1185 1181 1178 1176 1175 1174
1408 1403 1398 1393 1388 1384 1379 1375 1371 1365 1360 1355 1350 1345 1339 1334 1329 1324 1319 1313 1306 1300 1293 1286 1278 1270 1263 1254 1246 1238 1230 1222 1215 1208 1202 1197 1192 1187 1184 1182 1180 1179 1178
1401 1397 1392 1388 1384 1379 1375 1371 1367 1362 1357 1351 1347 1342 1338 1332 1326 1320 1314 1309 1303 1296 1289 1281 1273 1266 1258 1251 1243 1235 1227 1220 1213 1208 1203 1199 1195 1191 1188 1186 1184 1183 1183
1396 1391 1387 1383 1379 1375 1371 1367 1362 1357 1352 1347 1341 1337 1333 1328 1322 1316 1311 1305 1299 1292 1285 1278 1270 1262 1255 1248 1240 1232 1225 1218 1213 1208 1205 1201 1198 1195 1192 1190 1188 1187 1185
1390 1386 1382 1378 1374 1369 1365 1360 1356 1351 1346 1342 1337 1332 1327 1323 1318 1312 1306 1300 1294 1287 1281 1274 1266 1259 1252 1245 1237 1230 1224 1218 1214 1211 1207 1204 1200 1197 1195 1192 1191 1189 1188
1385 1381 1376 1372 1367 1363 1358 1354 1350 1346 1341 1337 1332 1328 1323 1318 1313 1308 1302 1296 1290 1283 1277 1270 1263 1256 1248 1241 1234 1228 1224 1219 1216 1213 1210 1206 1203 1200 1197 1195 1193 1192 1191
1379 1375 1371 1366 1362 1357 1353 1349 1345 1340 1336 1332 1328 1323 1319 1314 1308 1303 1297 1292 1285 1279 1272 1266 1259 1252 1245 1238 1232 1228 1224 1221 1218 1215 1212 1209 1206 1203 1200 1198 1197 1196 1195
1373 1369 1364 1360 1356 1352 1348 1343 1339 1335 1331 1327 1323 1319 1314 1309 1304 1299 1293 1288 1282 1275 1269 1263 1257 1250 1243 1237 1232 1229 1226 1223 1220 1218 1215 1212 1209 1207 1205 1203 1202 1200 1199